Location: Moscow
(41.5229°N, 71.7415°W)
Time: 06:10:46
(UTC+00:00)

Daily predictions for brighter satellites

Satellite Brightness Start Highest point End
(mag) Time Altitude Azimuth Time Altitude Azimuth Time Altitude Azimuth
SL-08 R/B 4.5 21:45:44 10° S 21:51:47 72° E 21:57:51 10° NNE
Cosmos 1802 Rocket 4.3 21:47:14 10° S 21:53:39 80° W 22:00:06 10° N
ATLAS 5 CENTAUR R/B 2.2 21:50:31 10° NNW 21:54:44 41° NE 21:59:54 10° ESE
Cosmos 1975 Rocket 3.7 21:51:27 10° NNE 21:55:23 33° ENE 21:59:19 10° SE
Iridium 4 Rocket 4.0 21:50:46 10° S 21:55:59 65° W 22:00:46 10° N
USA 215 3.3 21:50:29 10° ESE 21:56:57 68° NE 22:03:27 10° NW
Cosmos 921 Rocket 4.1 21:53:16 10° SW 21:57:26 47° WNW 22:01:43 10° N
MOS 1 Rocket 4.1 21:58:32 10° ESE 22:02:02 25° ENE 22:05:38 10° NNE
SWARM A 4.4 21:58:50 10° N 22:02:09 76° W 22:05:26 10° S
BREEZE-M DEB (TANK) 1.9 22:00:11 10° WSW 22:02:20 63° NNW 22:06:20 10° ENE
COSMO-SKYMED 1 4.2 22:01:12 10° ENE 22:03:24 14° E 22:05:36 10° SE
UNK 3.8 22:02:13 10° NNE 22:06:51 87° WNW 22:11:28 10° SSW
SAR-Lupe-1 4.2 22:03:28 10° SSE 22:06:55 49° ENE 22:10:23 10° N
Helios 1A Rocket 4.2 22:09:22 11° ENE 22:11:03 14° E 22:12:57 10° SE
Tsikada Rocket 4.0 22:08:24 10° N 22:14:51 82° E 22:21:12 10° S
IGS 5A 4.2 22:11:31 10° S 22:15:25 56° W 22:19:22 10° NNW
RESURS DK-1 3.4 22:15:07 10° N 22:18:21 23° NE 22:21:33 10° ESE
Cosmos 540 Rocket 4.1 22:14:19 10° N 22:18:54 32° ENE 22:23:26 10° SE
Cosmos 1763 Rocket 3.9 22:14:05 10° N 22:18:56 38° ENE 22:23:42 10° SE
SAR-Lupe-4 3.5 22:15:33 10° SSE 22:19:07 87° E 22:22:42 10° NNW
SL-16 R/B 3.8 22:15:36 10° N 22:21:26 42° WNW 22:27:14 10° SW
Cosmos 1140 Rocket 3.7 22:16:40 10° SSW 22:21:50 72° WNW 22:27:00 10° NNE
BREEZE-M DEB (TANK) 3.0 22:25:14 10° WSW 22:27:22 46° NNW 22:31:01 13° NE
Cosmos 1833 Rocket 2.9 22:22:25 10° NNW 22:28:05 79° WSW 22:33:42 10° SSE
SAR-Lupe-3 4.0 22:25:26 10° N 22:28:05 68° WNW 22:30:42 10° SSW
SJ-12 3.7 22:27:40 10° SSE 22:31:28 86° WSW 22:35:17 10° NNW
CZ-4C R/B 4.3 22:30:32 10° NW 22:33:06 14° NNW 22:35:56 10° N
PSLV R/B 4.4 22:29:54 10° ESE 22:33:12 25° ENE 22:36:30 10° NNE
YAOGAN 1 3.4 22:30:34 10° SE 22:34:09 27° ENE 22:37:46 10° N
Cosmos 2251 Rocket 3.9 22:31:31 10° S 22:36:25 41° ESE 22:41:14 11° NE
CZ-2D R/B 3.8 22:35:16 10° SE 22:39:06 41° ENE 22:43:02 10° N
Resurs 1-3 4.3 22:37:47 10° SE 22:41:33 31° ENE 22:45:19 10° N
IRS-P3 4.1 22:39:35 10° SSE 22:44:55 89° W 22:50:17 10° NNW
Cosmos 1812 1.9 22:42:10 10° S 22:45:01 56° E 22:46:33 24° NNE
SJ 16-02 2.1 22:42:51 10° SSE 22:46:36 29° E 22:47:35 27° ENE
Nadezhda 4 Rocket 4.4 22:42:29 10° N 22:48:21 40° ENE 22:54:09 10° SE
Cosmos 2058 3.1 22:44:44 10° N 22:48:30 40° ENE 22:52:15 10° SSE
Okean 2 Rocket 3.7 22:45:14 10° SSE 22:49:07 31° E 22:50:29 26° ENE
Cosmos 1400 Rocket 3.2 22:51:33 10° SSE 22:55:01 35° E 22:55:01 35° E
OAO 2 Rocket 4.2 22:50:21 10° WSW 22:55:03 40° S 22:57:57 21° ESE
Cosmos 1869 3.7 22:52:50 10° SSW 22:56:18 54° W 22:59:46 10° N
ARIANE 5 R/B 3.6 22:52:14 10° S 22:57:00 46° W 23:01:48 10° NNW
Cosmos 1536 Rocket 4.0 22:52:59 10° N 22:57:09 38° ENE 23:01:15 10° SSE
Cosmos 44 Rocket 3.2 22:55:09 10° SSW 22:59:53 88° ESE 23:03:04 22° NNE
Timation 2 Rocket 4.4 22:55:20 10° SSW 23:02:11 75° WNW 23:09:05 10° NNE
SJ-7 4.0 23:02:30 10° SSE 23:06:09 65° ENE 23:09:49 10° N
Cosmos 468 Rocket 4.0 23:03:54 10° NNW 23:09:02 56° ENE 23:12:48 18° SE
Cosmos 1190 Rocket 3.9 23:07:41 10° SSW 23:12:58 76° ESE 23:16:32 21° NNE
IRAS Rocket 4.1 23:09:08 10° SSE 23:14:42 83° ENE 23:20:16 10° NNW
Cosmos 676 Rocket 4.2 23:10:30 10° S 23:15:34 47° ESE 23:16:32 42° ENE
SL-19 R/B 3.9 23:11:18 10° SSE 23:16:32 76° ENE 23:21:44 10° NNW
SPOT 1/Viking Rocket 3.8 23:17:37 10° S 23:22:44 69° WSW 23:27:55 10° NNW
Cosmos 2344 4.4 23:16:09 10° NNW 23:23:33 39° NE 23:26:12 33° ENE
Cosmos 1954 Rocket 3.9 23:21:37 10° SSW 23:26:54 81° ESE 23:29:11 35° NNE
ATLAS 2AS CENTAUR R/B 4.0 23:22:39 10° NNW 23:27:19 20° NNE 23:27:19 20° NNE
ISS -2.1 23:25:30 10° W 23:28:15 28° NNW 23:28:15 28° NNW
Cosmos 1464 Rocket 4.1 23:24:13 10° S 23:30:31 79° W 23:36:49 10° N
Cosmos 2082 Rocket 2.0 23:25:15 10° NNW 23:30:53 74° ENE 23:33:06 38° SE
Cosmos 371 Rocket 3.1 23:26:19 10° S 23:31:03 69° ESE 23:31:10 69° E
Cosmos 1943 Rocket 3.2 23:25:53 10° SW 23:31:14 45° WNW 23:36:14 12° N
Cosmos 2151 Rocket 3.9 23:27:01 10° SSW 23:31:27 67° W 23:35:05 15° N
Cosmos 2278 Rocket 3.1 23:26:09 10° SW 23:31:36 47° WNW 23:36:35 12° NNE
OAO 3 Rocket 4.0 23:28:44 10° WSW 23:32:59 36° S 23:33:15 36° SSE
Cosmos 304 Rocket 3.5 23:32:29 10° SSW 23:37:12 83° ESE 23:37:16 82° E
ATLAS 5 CENTAUR R/B 3.8 23:33:02 10° WNW 23:37:14 29° WSW 23:42:10 10° S
COSMO-SKYMED 1 3.4 23:36:04 17° N 23:38:58 46° WNW 23:42:54 10° SW
Sich 1 Rocket 3.5 23:35:15 10° S 23:39:46 85° W 23:40:00 79° NNW
Cosmos 2034 Rocket 3.8 23:36:16 10° S 23:42:27 86° E 23:48:44 10° N
Helios 1A Rocket 4.3 23:43:02 27° NW 23:43:46 29° WNW 23:46:45 10° SW
Okean 1 Rocket 3.3 23:42:30 10° SSW 23:46:31 67° WSW 23:46:31 67° WSW
RESURS DK-1 4.1 23:52:16 10° NW 23:55:46 30° WSW 23:57:09 23° SW
